GFSMA_con_3kmhel_171.txt.gz
Helicity
124 100 97 82 72 47 42 33 41 43 44 50 53 53 44 38 38 41 51 46 59 97 166 214 251 273 284 250 212 161 131 103 106 130 182 79 43 84 95 114 120 112 100
125 94 93 72 61 47 39 49 56 58 59 58 49 40 30 21 16 25 41 67 79 83 124 146 154 171 171 192 184 165 192 209 137 93 109 148 108 45 84 108 107 127 119
146 104 85 74 65 54 81 79 84 70 69 63 56 58 39 34 20 9 25 60 49 124 219 161 145 130 128 133 153 162 183 209 197 123 68 75 122 100 51 93 106 119 130
144 119 97 87 87 87 91 88 79 72 71 61 79 78 66 38 57 56 87 104 134 160 167 189 145 116 100 98 123 156 193 183 176 201 110 67 71 109 80 64 107 113 140
146 111 96 102 95 94 98 85 82 80 40 71 79 73 65 70 64 100 142 197 187 163 104 121 130 85 115 120 147 170 183 166 197 254 169 74 77 68 95 74 79 117 143
160 116 116 119 102 109 106 88 97 98 42 69 61 55 34 33 78 127 107 160 154 142 116 84 61 79 110 115 104 145 177 177 173 176 189 188 90 77 65 66 90 94 141
168 155 117 127 143 120 112 104 67 81 61 83 55 59 52 45 108 114 95 88 65 77 108 138 100 92 77 109 92 121 174 193 169 151 160 140 133 117 80 90 40 94 117
152 164 135 138 148 134 122 100 73 46 39 44 21 19 70 49 40 89 39 31 63 89 181 247 199 166 132 57 53 76 139 172 180 148 146 137 124 162 143 121 79 -94 103
164 147 154 154 147 128 107 80 68 55 40 40 61 17 38 40 62 39 42 37 116 154 236 252 236 167 115 78 41 31 74 117 128 160 143 128 114 163 138 129 128 57 44
158 146 149 148 125 112 99 83 67 51 39 55 38 37 16 14 41 54 43 3 81 117 196 255 120 89 80 44 68 67 65 158 197 179 149 170 151 166 163 132 129 95 76
141 132 119 127 133 110 89 98 82 74 48 39 34 35 36 6 11 17 38 52 85 126 124 114 78 21 15 14 41 37 91 112 192 208 204 144 157 155 162 147 170 142 125
125 105 111 118 125 115 107 93 82 66 47 42 38 47 35 22 10 5 46 25 9 73 122 128 83 20 -18 -11 55 62 111 120 146 177 207 230 226 206 177 157 109 144 127
111 106 116 123 114 114 104 103 103 88 52 52 49 39 26 16 6 4 1 10 20 69 108 107 60 1 2 -23 10 48 67 105 147 164 205 223 309 372 355 277 176 128 128
108 105 105 110 128 120 122 108 109 102 89 67 60 49 28 14 9 8 6 13 30 70 105 87 72 36 5 -24 7 19 -35 73 158 211 281 336 288 388 460 503 443 444 300
125 104 106 135 134 119 139 126 120 120 107 74 62 52 28 21 15 16 11 30 36 54 79 101 37 37 12 -5 -12 -48 -74 -10 73 126 215 304 330 326 479 604 672 598 510
112 136 130 144 125 133 151 134 135 120 118 79 74 63 37 25 20 12 14 40 39 56 93 107 60 31 26 23 12 -27 -53 -29 5 51 136 170 249 396 387 521 626 720 748
106 141 153 124 120 132 139 144 130 122 109 93 79 62 52 40 29 22 13 29 28 37 54 116 63 49 33 -1 3 -19 -38 -32 -25 42 40 94 191 236 373 473 538 628 715
150 162 132 130 127 134 145 145 134 110 98 96 88 78 74 54 57 33 20 16 13 22 34 64 62 39 27 27 -12 -23 -29 -33 -28 40 33 63 92 155 212 317 399 569 693
191 164 148 142 138 135 140 130 115 105 92 87 82 81 76 80 75 43 31 28 23 20 36 50 57 51 29 37 15 -16 -35 -43 -23 42 44 76 108 126 130 190 283 291 366
167 166 167 164 161 166 144 109 101 93 84 89 72 71 68 71 73 56 48 37 29 37 31 27 25 36 23 -10 3 1 -17 -42 -23 -6 24 54 73 87 116 159 158 169 234
130 146 166 183 193 193 157 127 117 97 111 96 86 75 71 92 110 91 51 55 45 36 19 13 2 -9 4 -2 -2 -6 -34 -11 -26 -19 -14 7 29 58 96 129 141 194 104
144 160 203 218 201 167 154 172 178 194 176 132 121 112 106 101 84 96 102 110 83 30 37 -3 3 2 -13 -22 5 -6 -19 -32 -36 -4 -79 -14 2 8 49 29 94 107 153
260 308 306 235 190 169 177 175 183 177 182 160 133 120 104 85 83 65 92 88 93 85 51 3 12 5 -10 -31 -37 -18 -14 -29 -23 -14 -43 -33 -27 -5 7 38 94 99 132
320 318 286 226 191 161 171 170 185 179 183 160 139 131 115 93 84 86 68 51 34 5 -9 -7 -11 -15 -12 -14 -23 -37 -29 -15 0 48 10 -11 -8 -4 -6 21 80 95 149
298 289 248 217 188 163 164 145 151 158 159 150 127 122 114 116 103 113 88 78 75 61 49 72 60 62 63 93 64 4 38 9 0 18 69 14 37 14 -23 14 26 91 131
262 265 219 188 148 130 128 134 107 119 141 136 141 130 132 117 120 110 110 96 101 66 68 63 45 28 33 47 92 45 -2 15 6 19 40 29 51 19 40 -7 29 79 102

GFSMA_con_3kmhel_174.txt.gz
Helicity
203 169 137 114 111 88 83 82 80 71 58 56 72 82 90 101 100 98 110 127 129 130 154 150 156 127 119 122 105 75 92 153 174 151 101 117 106 138 144 51 55 85 117
202 166 152 133 127 98 88 72 52 48 51 68 80 97 110 122 131 138 110 105 163 187 157 140 133 117 98 90 121 136 125 109 136 181 177 111 76 93 125 144 65 75 93
217 180 161 157 122 100 95 70 61 63 75 84 91 93 111 109 116 132 142 147 151 194 184 167 146 132 115 104 92 86 127 158 140 202 216 198 120 44 80 115 132 71 89
229 205 172 153 116 108 84 74 75 84 96 111 103 119 125 128 142 153 148 137 120 99 112 152 142 128 130 141 140 133 122 135 184 187 195 222 220 167 16 81 106 109 72
225 206 177 146 127 113 101 81 108 89 109 126 103 132 146 172 139 111 130 118 95 79 65 93 122 126 142 183 181 168 189 192 167 154 156 158 191 222 157 34 54 121 93
215 212 187 159 133 121 112 115 103 112 118 116 108 138 126 143 123 81 90 88 79 88 110 138 128 120 204 208 224 235 211 181 184 174 126 141 137 162 180 102 47 37 138
219 198 188 167 147 121 87 100 96 143 192 142 85 115 101 128 105 78 68 61 109 132 144 143 147 134 125 196 210 227 215 195 200 254 272 144 118 111 146 169 67 31 23
216 193 178 156 131 108 122 136 116 95 143 178 83 78 105 74 67 76 64 39 87 107 134 126 118 125 138 117 150 190 186 161 141 189 260 226 175 126 100 127 131 82 32
224 195 174 151 129 106 116 125 131 112 74 117 129 68 95 79 61 41 57 46 98 111 95 77 67 100 119 91 76 96 141 126 108 123 158 244 241 180 107 95 105 116 87
221 192 171 143 126 105 126 116 113 100 56 17 70 91 79 62 84 69 48 48 69 87 97 91 46 57 89 51 58 69 106 100 96 118 148 179 259 247 145 144 103 118 112
214 194 166 136 129 122 120 118 112 95 46 48 50 22 60 52 45 50 43 63 24 70 98 103 74 36 69 41 8 8 65 59 38 65 105 144 197 220 236 223 181 119 107
209 184 158 137 124 119 120 112 93 74 55 48 36 50 41 47 49 34 33 33 10 43 98 120 92 78 52 17 18 20 34 39 42 52 74 123 142 219 261 181 193 173 135
201 164 148 125 129 116 124 124 104 69 54 60 55 55 48 53 41 27 10 19 26 30 72 139 90 85 60 2 2 12 10 47 63 67 93 120 144 194 287 322 328 267 208
168 144 126 134 108 128 131 142 116 78 85 72 74 68 63 61 36 18 16 18 27 21 49 63 104 78 58 25 15 26 -13 31 50 44 65 146 199 192 251 332 426 401 276
150 126 115 119 101 82 146 160 127 99 97 69 78 82 71 53 27 13 11 2 5 32 50 87 54 70 52 47 25 7 -9 37 38 29 46 90 122 98 210 338 408 467 540
149 126 128 91 34 190 166 145 132 112 107 93 89 97 75 45 20 13 4 1 0 38 29 69 52 57 63 32 20 -2 -12 23 46 53 57 55 131 154 97 248 424 540 636
168 129 89 0 186 160 137 147 137 124 132 116 106 90 69 42 25 20 9 14 10 10 13 58 49 40 72 46 20 -9 -40 -42 -32 47 57 90 114 140 159 169 224 390 714
166 156 10 163 171 156 134 128 122 118 123 127 106 92 69 34 42 35 32 33 24 14 14 23 34 32 33 22 46 4 -40 -44 -46 15 32 68 109 128 154 163 207 209 310
157 109 117 172 166 143 132 126 130 124 127 117 103 93 62 51 64 56 63 70 49 47 61 51 21 25 11 17 27 40 5 -37 -42 6 25 48 73 90 102 142 137 164 215
155 8 129 175 147 137 126 129 131 136 132 110 95 78 50 74 79 81 92 75 63 72 52 39 25 8 3 3 9 13 -2 -27 -28 -10 13 20 34 88 111 118 144 124 148
178 151 171 162 162 153 118 129 134 134 128 119 89 66 53 82 119 110 99 92 79 75 62 51 39 9 6 -4 1 7 8 10 -28 -13 -26 9 41 58 83 104 102 75 77
121 138 115 148 171 162 146 150 145 143 129 119 103 94 93 106 123 139 155 152 112 75 67 25 22 14 -3 -2 -14 -14 -21 -18 -18 -3 -19 -3 11 34 65 50 113 131 57
131 151 163 164 174 183 191 188 176 169 156 121 105 90 92 96 99 90 125 148 132 110 76 19 24 23 13 -5 -20 -23 -8 -20 -20 -8 -15 -11 -8 -3 26 51 94 140 104
173 152 168 155 186 187 196 190 199 196 173 144 124 104 112 101 82 85 101 103 67 34 30 42 45 13 7 -13 -33 -36 -24 -14 -13 13 15 3 -4 -13 -12 17 90 122 172
179 175 153 156 193 192 180 192 204 192 178 141 118 113 119 94 106 107 117 107 91 89 75 93 92 98 83 109 40 -16 -5 -20 2 8 42 8 1 -22 11 52 52 107 152
195 187 158 148 166 187 160 155 165 164 161 135 116 118 122 116 114 101 106 103 103 61 80 82 77 71 74 80 113 58 7 4 9 17 4 20 1 5 30 23 53 107 117

GFSMA_con_3kmhel_180.txt.gz
Helicity
203 183 170 152 151 134 139 139 116 99 100 100 112 118 138 152 178 175 168 206 182 148 126 107 99 102 99 119 107 112 117 128 133 133 163 189 198 206 156 167 162 129 81
221 202 183 166 159 149 145 137 118 108 108 107 138 145 151 162 169 164 134 127 152 130 118 110 102 96 104 89 87 88 93 95 97 121 132 129 146 159 164 149 126 201 168
216 205 191 181 154 147 159 153 149 140 141 144 162 160 168 173 179 163 130 106 91 135 144 132 129 141 123 118 114 113 119 131 124 151 148 134 153 165 162 166 151 109 153
226 242 212 190 160 153 154 170 150 176 170 162 157 184 194 198 187 162 141 127 116 105 119 144 136 127 117 110 101 104 91 107 126 137 154 189 206 208 187 171 186 157 130
205 249 224 201 172 177 172 161 175 140 165 184 188 215 234 228 203 163 154 140 120 107 84 118 125 128 113 118 130 128 120 123 148 185 220 257 250 253 250 230 196 195 154
234 222 233 208 189 209 193 188 178 202 167 180 205 231 234 224 195 157 133 118 107 103 56 72 89 93 136 132 136 145 149 142 157 177 189 215 211 203 203 226 227 215 183
251 255 230 224 188 211 192 177 202 210 210 191 176 174 199 191 182 162 134 134 127 99 86 68 85 56 66 124 144 140 153 147 167 181 191 198 187 197 180 191 215 193 188
270 251 244 212 202 258 215 174 183 174 167 111 102 127 111 138 175 184 163 135 118 96 89 83 87 63 59 62 104 107 115 159 173 179 162 144 111 98 105 110 168 179 179
276 248 233 253 200 231 200 166 152 149 139 128 95 107 125 120 176 157 160 137 120 107 84 66 67 65 79 71 63 79 114 124 148 135 120 88 68 65 59 82 141 174 141
320 263 235 229 204 194 211 197 152 131 147 122 152 169 187 172 170 148 135 128 109 110 95 62 53 52 52 47 53 83 91 111 123 114 101 85 59 84 77 93 102 131 112
328 277 277 237 265 222 222 183 176 143 131 125 115 136 174 219 177 148 128 109 96 91 83 73 48 40 45 39 40 73 88 91 109 107 97 80 70 91 139 124 66 21 94
353 279 274 231 268 196 247 172 189 167 161 162 152 133 160 141 127 126 126 113 95 82 74 68 32 35 26 37 38 90 71 81 93 103 84 69 62 67 98 121 49 78 130
411 313 277 253 271 216 237 166 164 157 156 167 134 180 174 146 117 109 104 100 104 67 63 65 40 16 39 33 40 65 50 63 86 89 69 67 73 64 99 85 86 53 200
401 331 284 265 222 201 229 187 125 122 132 134 142 205 152 134 105 78 78 83 88 86 85 72 48 34 33 28 33 29 18 43 69 74 78 72 75 69 89 93 102 115 132
315 261 239 235 203 191 172 159 111 129 160 113 160 147 136 109 92 82 78 69 81 104 88 67 60 42 30 27 21 12 2 39 50 65 67 68 77 76 88 121 103 103 139
283 252 249 239 192 173 185 193 146 130 138 144 129 130 114 83 77 70 59 56 70 84 73 61 58 34 43 24 17 16 4 14 18 51 54 72 84 98 91 96 111 112 121
264 230 222 211 211 225 196 125 153 127 179 145 126 116 99 74 71 58 58 66 76 60 64 60 53 34 39 27 23 13 1 -3 -9 28 28 38 76 83 78 88 112 122 118
215 283 291 320 262 139 215 169 117 149 151 130 116 101 90 73 71 63 67 80 65 66 46 41 42 38 43 26 10 25 13 -1 -20 2 21 33 48 73 79 44 82 127 115
301 307 282 329 201 177 161 188 168 134 133 136 117 93 80 58 72 76 78 84 72 76 60 61 49 36 31 36 19 -3 10 14 -5 9 8 12 25 55 85 47 48 102 134
282 286 268 236 195 193 154 203 121 140 154 138 121 107 75 66 79 79 92 92 93 93 71 64 54 39 35 17 20 29 15 13 11 2 15 17 21 37 81 63 36 37 91
265 260 216 222 235 244 164 203 107 140 149 148 135 112 84 90 104 82 86 100 112 96 77 60 47 37 34 28 44 39 17 -5 2 4 -6 13 -4 9 55 62 31 47 27
288 243 199 240 248 184 141 93 122 128 129 124 115 109 122 135 129 160 166 161 117 92 72 57 50 45 36 29 29 37 38 24 -8 11 -12 -5 -20 -7 11 35 59 32 28
287 262 279 153 199 218 63 65 82 124 132 124 122 123 122 113 125 149 202 197 200 159 116 66 72 57 49 39 28 36 47 44 31 17 3 -1 -22 -21 -19 5 60 57 21
344 342 267 194 225 212 64 50 95 147 148 125 122 113 107 103 116 146 162 179 158 133 114 96 87 71 60 47 30 46 45 53 45 38 25 24 6 -4 -7 -8 42 44 49
495 414 294 291 303 244 76 77 122 166 159 139 120 112 103 98 104 128 152 159 127 101 99 104 106 121 118 130 106 51 54 43 43 32 32 23 20 15 12 24 14 49 61
510 384 284 331 243 149 105 86 135 164 145 125 108 90 92 96 100 131 142 130 123 91 94 96 97 103 124 116 139 95 46 50 44 40 27 29 18 15 25 9 32 44 27

GFSMA_con_3kmhel_183.txt.gz
Helicity
175 169 169 153 152 160 158 160 144 132 125 112 108 109 121 132 136 124 124 158 143 124 114 111 112 116 110 107 110 106 114 115 121 129 132 131 133 136 133 128 110 137 138
193 171 164 160 159 164 161 169 156 143 139 128 140 140 147 149 147 126 100 116 136 129 121 128 123 107 97 94 93 103 95 105 90 89 79 84 92 111 135 148 158 143 132
197 179 180 165 166 185 188 195 192 172 158 146 162 161 162 159 138 125 106 88 93 148 165 143 130 132 123 124 130 117 109 96 83 84 99 112 123 126 126 130 134 157 187
207 193 178 169 172 189 193 191 178 178 158 148 160 160 157 148 135 125 114 103 102 96 141 160 150 144 142 137 124 120 100 89 88 87 84 81 74 85 98 98 103 131 130
230 199 185 190 180 189 209 196 198 180 177 175 181 178 170 156 140 134 143 142 136 122 98 130 134 139 134 134 127 126 126 114 119 112 104 102 104 109 117 131 138 141 139
248 218 187 186 199 172 227 223 204 199 190 186 208 209 190 169 148 147 143 132 130 128 115 112 85 80 129 132 136 121 132 147 139 130 121 119 109 105 110 109 113 129 165
245 241 218 205 197 179 180 197 215 229 247 198 225 207 195 180 174 153 134 124 116 116 115 112 95 81 70 109 134 145 135 139 148 144 118 114 112 108 117 100 78 70 90
279 247 217 196 198 194 232 188 190 239 257 178 181 172 141 120 157 170 137 132 115 102 104 109 102 89 80 74 98 123 113 124 136 135 131 135 125 112 80 68 47 63 80
330 257 236 221 208 179 191 200 178 190 220 181 163 165 149 134 141 148 158 149 116 114 96 92 94 88 92 82 83 84 107 105 104 122 139 127 115 72 42 66 73 114 152
374 303 255 220 201 254 148 173 191 196 193 200 170 126 143 146 119 121 155 150 129 115 104 83 81 84 89 66 65 93 90 89 82 112 125 120 95 67 46 61 86 109 104
401 370 341 277 312 229 179 179 179 172 187 187 182 157 153 151 164 162 161 142 131 107 106 80 72 73 71 64 57 70 73 64 79 103 118 99 91 85 77 69 77 88 96
434 358 373 302 282 321 214 233 199 200 178 183 154 130 121 149 144 161 178 153 131 100 84 76 70 71 66 60 60 61 53 59 76 85 79 77 98 102 103 94 85 62 63
507 453 474 351 319 269 256 243 214 233 180 184 179 160 119 150 155 171 168 163 121 96 82 66 71 78 69 52 50 47 53 52 76 75 82 85 91 109 107 101 92 71 84
593 539 548 531 269 224 249 211 226 249 240 192 177 122 142 181 162 148 133 123 135 107 87 81 67 73 53 49 52 41 43 47 66 54 69 83 85 89 96 97 98 111 104
733 706 603 422 219 197 233 203 240 207 184 152 156 154 134 163 143 144 133 94 100 98 102 73 77 64 52 48 49 41 44 58 61 50 46 63 73 85 94 98 99 107 120
793 617 466 302 179 173 196 224 228 218 188 170 189 172 188 144 131 139 106 85 86 99 117 73 73 62 64 53 46 40 50 38 52 49 48 65 64 57 70 84 97 100 112
702 488 433 441 146 178 173 214 235 236 208 111 206 190 148 128 122 112 87 85 95 91 101 86 69 72 67 55 48 48 38 30 29 51 47 38 53 64 56 70 73 84 87
408 331 439 501 181 155 157 211 246 160 101 229 190 137 130 121 121 101 85 90 85 79 87 102 100 94 72 57 28 40 40 34 37 50 41 48 58 81 63 73 67 54 69
375 295 319 255 175 140 138 162 223 265 173 236 129 108 112 112 112 96 81 75 72 74 77 110 123 83 60 37 45 41 41 38 43 42 32 32 43 69 74 68 77 72 54
457 405 209 213 183 200 210 201 208 203 267 229 138 115 102 106 98 87 78 73 64 79 118 132 131 89 48 49 37 30 35 38 42 38 46 15 15 35 66 46 85 91 74
245 177 260 224 168 199 205 128 167 181 151 146 133 112 114 112 99 86 78 65 68 100 126 140 121 78 78 59 42 26 22 23 44 34 45 34 7 2 10 26 22 72 85
302 203 226 275 220 163 121 193 186 200 150 150 137 117 123 120 113 94 99 86 86 117 144 132 113 107 85 56 37 30 28 21 36 48 13 45 26 18 -0 -0 36 22 39
239 216 253 261 187 179 165 190 220 184 148 137 119 131 140 129 126 127 145 167 188 186 166 138 124 100 82 55 32 30 48 44 46 39 8 45 30 32 19 7 37 44 25
263 283 296 276 260 213 180 188 262 175 138 122 123 130 138 116 111 112 138 173 181 192 194 173 157 138 109 72 28 40 45 55 52 52 20 42 28 38 40 27 52 51 53
329 319 329 345 289 198 192 157 263 170 136 122 124 125 117 114 103 103 139 158 178 181 173 187 191 164 150 138 84 48 58 41 61 58 50 23 44 25 38 36 18 37 59
357 378 382 325 243 246 232 220 275 217 131 156 131 123 98 98 96 99 129 138 147 143 142 152 158 154 137 152 167 124 79 85 73 60 60 19 37 22 34 51 31 25 18

GFSMA_con_3kmhel_186.txt.gz
Helicity
172 168 158 136 119 120 115 129 142 142 144 136 120 118 124 129 114 109 120 163 157 142 131 137 118 109 99 111 117 119 119 115 116 106 108 113 116 119 129 129 126 120 117
184 178 168 150 136 120 134 148 155 176 157 145 151 137 136 131 134 116 108 132 162 171 171 140 124 119 108 114 113 108 103 95 88 91 94 91 87 92 96 107 119 132 132
195 192 186 182 156 160 156 183 180 195 176 159 175 160 154 141 135 126 103 97 109 195 172 157 153 162 152 135 127 120 108 96 90 83 84 79 74 68 75 86 99 106 116
217 222 212 205 181 184 173 179 176 189 192 165 167 166 157 150 143 133 120 97 88 73 124 160 171 181 177 158 143 124 103 90 80 75 72 70 69 71 68 74 83 107 116
245 244 235 234 201 195 188 192 193 180 196 195 185 179 165 154 135 131 125 119 111 93 81 112 133 149 155 163 154 127 110 103 97 95 83 82 76 81 86 91 97 114 120
274 258 257 241 216 212 199 199 212 196 188 192 197 207 187 165 139 118 109 100 111 114 107 99 70 94 123 153 151 135 121 115 109 101 91 87 86 90 93 95 107 117 112
315 265 250 240 242 223 186 180 206 200 227 216 237 228 206 182 162 127 108 104 119 134 132 108 111 94 71 87 140 142 128 125 124 110 105 108 111 107 100 104 94 84 78
376 346 306 242 242 258 220 199 210 225 220 159 196 157 174 163 164 140 118 122 129 135 143 119 120 106 90 83 93 121 129 128 137 133 132 132 113 106 108 97 84 77 79
450 447 416 317 261 281 250 208 228 235 184 168 166 203 176 190 193 144 137 142 145 135 124 117 116 106 96 90 83 92 127 135 147 147 141 114 105 121 126 100 81 73 72
462 456 397 354 304 305 272 228 249 181 171 133 216 187 241 205 205 204 140 147 155 141 113 120 110 109 104 90 73 104 114 138 147 142 104 100 112 121 123 99 85 85 81
496 450 444 424 366 336 304 236 261 236 191 121 174 190 206 192 171 157 163 143 143 132 133 122 118 103 94 92 93 104 119 125 120 111 92 101 112 125 133 124 106 109 108
577 445 490 466 448 403 405 325 277 325 224 144 152 138 187 204 158 165 174 133 143 151 131 108 104 101 93 91 104 100 104 117 109 109 92 96 99 112 128 122 122 114 108
652 569 520 526 502 474 428 356 357 312 180 91 162 175 214 206 163 148 139 143 162 151 136 123 109 100 93 79 90 78 112 125 100 84 94 81 88 94 100 112 118 129 116
594 561 611 568 496 538 462 385 422 474 162 180 162 179 201 190 153 138 143 161 192 130 111 118 92 89 86 93 87 48 96 109 87 75 85 87 84 81 79 83 92 108 113
672 648 720 734 535 502 517 426 529 236 191 196 209 181 186 154 131 133 179 139 122 127 122 103 112 91 87 94 85 84 87 107 92 91 83 92 83 79 77 77 80 85 93
672 789 869 720 785 654 514 544 453 209 212 231 210 210 223 149 128 190 187 157 136 132 150 115 115 100 94 92 80 75 76 57 95 88 88 91 94 95 98 92 81 77 72
717 814 871 929 791 615 499 491 273 200 182 187 196 285 178 115 122 221 182 161 151 127 167 170 115 86 109 99 85 75 60 54 77 89 87 77 96 88 100 96 94 82 73
658 812 856 1006 842 722 528 562 187 198 165 190 186 153 145 125 214 194 170 154 154 152 133 136 109 102 112 100 88 68 58 67 64 70 58 66 87 80 82 85 85 84 79
565 650 784 704 612 633 632 339 182 155 173 155 138 210 134 193 180 169 155 147 147 154 137 117 121 105 106 92 86 47 45 51 56 47 42 50 58 73 67 77 74 75 77
434 487 501 517 529 520 483 352 157 136 137 153 223 171 186 197 183 161 142 133 135 138 132 124 126 118 99 95 68 68 63 50 55 39 58 36 17 53 53 64 80 73 65
363 448 490 450 453 414 261 246 168 102 112 143 207 248 223 184 177 149 123 123 131 132 127 124 120 119 130 103 85 81 72 62 59 29 46 60 63 63 57 59 62 80 67
397 411 362 346 314 201 117 89 105 175 189 198 238 181 169 163 165 171 203 198 152 115 114 119 110 132 142 117 101 92 78 60 61 65 21 79 55 69 76 63 58 78 88
358 344 312 249 248 152 97 158 168 137 157 196 150 143 174 167 143 169 174 183 187 185 189 103 119 139 139 106 110 93 87 68 79 77 27 88 59 67 65 74 78 69 71
331 306 292 211 194 93 108 144 112 131 180 191 198 198 174 156 153 157 175 201 199 194 202 197 173 180 155 122 97 110 96 100 96 97 64 82 67 74 67 72 76 69 68
243 225 200 162 125 151 122 151 155 188 221 234 208 226 200 208 174 189 203 176 185 196 194 199 206 203 203 165 117 115 110 83 102 99 95 72 80 60 64 68 49 35 61
219 200 182 117 130 188 166 159 158 195 229 277 204 209 169 164 155 156 167 156 161 150 164 181 197 202 203 217 205 186 128 114 124 106 117 84 88 55 44 79 57 43 35

GFSMA_con_3kmhel_192.txt.gz
Helicity
290 330 244 215 189 161 201 141 138 187 206 207 174 114 264 255 195 239 284 229 179 155 118 109 117 114 113 117 118 120 124 117 110 106 98 100 97 99 98 95 104 112 117
291 324 297 220 180 179 206 172 256 212 230 221 180 220 300 292 284 226 306 259 239 196 165 149 128 126 126 130 130 138 136 130 117 109 106 100 98 98 98 99 101 103 108
257 340 296 270 243 233 259 235 267 241 250 249 284 323 371 332 229 214 214 246 253 231 216 217 176 148 139 128 131 127 132 131 121 113 105 97 95 95 91 86 88 90 92
272 323 286 318 347 355 325 344 317 273 318 305 337 346 380 330 239 161 151 157 176 202 220 216 191 170 156 133 134 138 124 116 117 111 102 98 96 90 82 76 73 77 83
322 360 379 389 373 379 361 410 354 350 347 377 360 301 333 331 258 202 151 147 127 153 159 156 165 172 171 176 173 172 155 139 130 114 99 90 85 80 74 69 73 74 85
403 405 450 461 436 434 425 435 369 363 374 414 347 403 302 248 232 278 300 239 187 154 127 92 116 124 151 175 180 188 184 158 130 121 97 87 78 76 79 76 80 89 86
473 480 500 478 521 518 460 458 441 387 444 437 555 464 402 321 312 245 218 235 247 180 105 89 104 92 90 170 194 194 176 153 128 111 110 103 102 96 95 90 88 82 79
518 545 515 496 558 616 497 439 420 488 552 620 636 631 511 405 276 238 211 229 231 237 181 203 159 61 99 112 159 200 211 183 146 121 115 106 97 103 93 86 83 84 86
555 558 543 554 626 590 574 572 491 514 668 666 580 526 568 464 402 282 248 245 228 178 211 192 196 230 179 141 142 165 171 159 142 124 114 111 110 112 111 107 110 106 102
477 504 568 606 666 662 562 569 590 626 716 724 515 457 443 445 602 477 310 280 231 284 182 166 181 211 192 174 143 134 136 157 149 129 113 114 114 115 108 114 125 128 127
428 500 561 557 676 636 595 668 622 612 650 665 633 487 571 414 396 478 423 456 364 245 210 157 171 198 142 157 145 127 128 144 134 124 120 124 124 116 119 126 125 130 131
429 464 472 544 645 650 648 723 690 610 626 598 614 531 637 542 562 565 460 351 374 270 202 223 192 184 232 220 165 123 121 133 143 132 122 125 124 115 112 127 128 126 120
475 428 525 505 604 676 713 733 722 617 641 645 569 544 577 476 467 415 375 406 481 482 282 172 179 189 175 161 147 128 128 135 137 135 127 118 106 107 117 122 121 110 109
480 409 573 569 619 675 757 783 699 629 677 716 606 602 520 461 500 556 507 576 710 591 277 177 196 207 219 161 145 130 117 128 142 140 115 101 98 103 118 116 95 81 84
537 505 503 561 627 720 756 807 797 687 761 712 673 732 655 563 629 621 437 447 452 512 270 148 222 202 257 171 92 133 127 120 128 122 112 100 103 113 116 93 71 79 97
503 489 571 526 580 714 777 817 795 818 715 868 861 844 810 744 660 564 484 214 421 425 306 179 152 270 210 150 134 177 119 104 112 111 94 85 92 108 101 82 83 93 88
509 717 664 586 656 738 764 853 836 820 727 843 915 786 700 478 500 537 509 517 257 141 243 194 205 225 237 194 197 147 114 84 73 75 68 69 78 89 83 79 89 85 86
568 790 656 668 708 725 823 856 896 791 705 678 644 787 642 667 653 630 637 289 230 206 236 297 234 297 262 182 117 109 88 103 58 40 40 40 49 68 69 74 77 72 83
410 456 605 657 651 708 786 788 740 729 848 759 727 713 769 682 651 675 557 294 235 198 249 402 306 284 234 231 207 151 161 105 66 33 16 20 41 50 71 79 84 84 72
545 754 641 647 645 669 690 762 852 955 971 905 820 650 638 625 480 381 418 257 194 184 311 354 295 270 267 210 187 147 127 81 93 37 -9 23 26 43 96 85 83 82 79
451 545 544 503 586 619 655 806 909 951 871 823 626 505 375 269 316 219 237 153 158 245 305 275 281 249 213 183 140 114 110 134 119 90 55 35 30 23 107 78 57 72 74
351 406 423 467 517 519 513 638 756 794 726 672 535 383 361 389 341 197 206 187 210 277 213 228 251 224 168 158 147 141 162 164 115 59 89 79 86 121 106 56 61 68 73
298 330 375 436 453 478 559 628 577 653 673 534 404 366 360 200 213 204 242 326 334 289 188 184 213 184 202 157 176 158 185 113 118 96 115 99 99 105 98 74 68 58 61
322 374 401 426 482 512 552 485 462 423 391 368 372 288 225 167 181 217 282 304 227 253 241 224 193 219 208 198 168 147 148 227 236 185 129 124 148 176 112 75 73 61 68
333 375 415 444 419 350 337 328 364 393 389 313 234 126 109 109 159 237 280 216 229 296 329 365 361 321 334 291 237 173 242 219 157 131 136 134 125 126 115 86 57 63 57
304 325 324 312 283 307 326 312 311 264 261 195 104 74 102 130 168 134 181 193 234 247 299 345 341 332 314 290 272 277 221 164 169 131 113 152 123 108 96 94 69 57 39

GFSMA_con_3kmhel_195.txt.gz
Helicity
282 341 335 302 255 208 171 128 117 122 131 127 226 268 307 314 311 280 238 194 165 134 138 141 124 116 115 121 121 121 118 119 120 122 129 128 124 127 120 119 122 126 125
287 327 318 277 242 209 185 166 144 161 182 230 302 311 340 368 355 369 339 256 215 161 159 142 136 118 115 117 113 115 114 113 111 111 105 108 108 110 112 112 109 109 108
258 353 340 319 270 219 186 157 202 253 303 299 366 447 432 378 374 387 348 305 286 264 226 187 167 140 126 125 119 123 124 120 119 125 117 108 102 102 102 108 109 116 124
272 335 430 357 331 257 233 208 278 338 335 355 475 521 446 384 337 321 328 323 274 293 281 242 219 199 167 133 121 118 123 121 116 115 112 106 106 108 111 113 105 96 90
305 362 365 428 434 374 349 353 354 362 370 421 521 550 491 374 279 272 279 301 277 287 285 238 227 225 198 167 148 132 117 116 120 124 123 119 112 104 93 83 79 83 79
319 432 399 410 472 458 462 484 461 413 410 446 518 573 489 383 320 255 259 253 245 249 245 220 187 181 179 182 175 166 166 163 161 146 129 115 107 91 80 73 78 80 82
311 369 447 494 556 527 590 641 629 541 496 542 636 594 544 429 366 304 291 253 215 209 206 204 166 178 169 176 191 187 189 190 179 144 124 119 111 88 75 71 72 70 70
356 406 416 524 500 654 662 737 688 657 651 628 617 722 636 535 440 416 347 272 212 189 187 196 177 192 186 177 184 231 200 186 171 146 125 124 110 98 87 83 81 78 77
397 455 444 469 531 651 684 765 722 678 723 718 682 701 754 596 636 453 427 372 331 246 196 160 179 200 176 175 166 186 205 194 186 147 128 105 95 82 86 90 90 83 81
323 390 477 492 495 548 625 831 764 734 695 791 745 605 546 526 697 625 476 465 361 347 355 290 248 208 196 182 128 131 187 174 183 143 132 118 109 97 88 83 75 73 66
213 338 410 419 478 631 615 781 775 697 697 787 915 652 650 583 588 665 695 629 489 400 368 304 296 223 200 207 165 140 168 164 185 169 147 122 96 84 83 84 79 74 69
140 155 263 412 452 557 567 622 700 774 713 761 813 713 777 778 684 733 725 802 681 499 332 414 343 277 207 201 155 131 168 176 184 173 147 120 92 83 75 79 76 72 77
139 159 175 192 407 492 513 604 678 837 657 749 781 772 746 705 654 647 663 745 753 708 539 395 390 257 198 200 149 126 160 173 170 152 139 114 89 82 88 91 83 88 93
99 126 183 229 233 330 511 598 723 777 740 751 743 750 708 689 665 701 705 985 885 850 567 493 316 299 222 215 150 122 145 152 156 144 121 107 91 94 91 87 94 95 97
149 93 134 253 276 241 326 519 646 782 767 811 762 682 697 685 667 653 665 766 925 892 564 406 478 305 289 244 136 147 146 125 131 126 126 117 94 90 91 91 100 101 96
139 167 154 178 273 337 330 529 748 696 786 852 770 770 616 689 737 756 740 697 693 801 709 403 371 370 335 219 129 134 151 116 120 120 126 115 99 88 87 98 103 99 82
157 145 162 170 245 425 389 537 559 760 775 822 900 780 564 777 796 791 765 785 751 654 788 450 377 358 274 206 153 152 154 116 117 100 98 90 74 78 89 91 94 81 60
128 115 141 169 203 266 507 561 585 860 789 827 944 816 807 723 948 895 771 810 668 585 588 467 447 287 269 222 182 163 135 112 102 86 84 63 65 67 73 71 61 56 43
11 66 116 204 203 512 410 533 834 756 868 850 988 825 888 882 940 991 748 725 632 595 356 427 446 241 293 284 174 163 128 116 90 64 63 46 48 66 69 66 60 60 42
30 104 186 356 411 468 447 628 461 651 954 852 928 875 925 858 811 895 841 690 543 514 438 531 352 276 295 159 166 146 139 136 105 82 57 42 39 71 57 59 56 48 36
124 158 201 231 228 325 523 656 765 724 935 857 881 860 830 712 653 747 667 575 450 442 481 485 280 298 284 189 125 175 178 108 146 116 83 45 51 99 58 65 44 37 37
170 186 223 361 435 456 515 536 715 754 742 714 856 935 780 601 450 347 319 309 348 454 468 215 233 326 241 186 164 193 195 178 162 116 119 54 83 100 61 25 39 34 36
214 220 265 358 411 419 514 570 651 664 702 805 856 736 573 479 419 365 379 383 308 167 140 207 192 239 262 223 199 193 149 183 170 120 128 107 111 138 58 59 47 34 34
223 218 268 301 326 331 365 458 566 649 663 538 474 456 472 401 370 398 484 421 325 302 239 217 176 230 239 213 163 144 154 227 235 208 191 157 152 130 107 58 47 38 36
185 214 253 271 269 259 341 488 536 467 443 422 407 398 367 312 319 276 231 292 304 360 246 129 133 178 149 179 194 279 267 254 230 185 176 182 183 171 107 65 37 40 23
158 199 232 246 270 261 272 347 334 330 355 336 287 255 247 218 143 141 207 254 262 281 245 257 343 338 313 284 242 190 220 235 252 199 141 210 199 146 93 88 69 59 41

GFSMA_con_3kmhel_201.txt.gz
Helicity
219 198 176 175 155 168 156 123 111 129 146 177 207 251 282 290 282 286 264 179 111 121 157 144 122 134 135 130 122 112 116 106 110 115 107 108 112 114 118 128 131 138 147
212 201 186 159 146 131 167 164 126 135 179 215 223 243 271 302 313 314 279 225 149 124 144 141 136 131 146 140 127 116 119 120 118 118 110 95 98 104 113 120 125 122 130
227 215 217 219 217 192 183 168 147 156 213 250 238 264 303 326 327 325 304 264 203 163 170 177 156 155 144 138 133 128 127 136 128 116 122 108 112 113 113 114 115 126 125
196 223 242 247 247 271 274 246 213 186 182 249 314 311 327 353 351 340 323 286 268 236 196 189 159 159 163 151 137 141 135 125 128 106 110 109 107 116 117 121 122 122 127
215 265 277 258 314 329 316 294 292 264 239 288 321 396 421 384 384 384 353 350 331 330 304 230 201 168 151 161 143 140 146 117 113 113 105 110 120 137 122 129 125 120 125
131 206 270 294 354 359 321 346 339 288 349 377 391 407 394 437 456 417 412 423 410 394 414 413 355 278 193 150 139 125 127 131 109 123 119 126 139 148 140 137 132 119 109
130 138 153 227 342 380 382 403 341 350 372 431 632 544 527 454 439 460 449 436 425 425 403 395 381 372 323 259 196 137 114 127 132 122 128 151 147 151 141 132 122 113 96
105 125 155 192 220 315 341 378 423 429 444 551 601 490 629 506 493 421 434 451 490 501 444 425 383 372 323 287 287 209 140 140 141 139 136 133 138 139 133 127 118 112 100
168 200 185 185 202 232 313 333 386 334 455 639 609 861 592 576 793 595 517 503 491 516 535 493 451 345 314 271 283 340 322 165 173 156 127 129 129 135 135 123 111 100 94
181 173 179 181 185 169 109 111 266 338 520 450 545 617 640 647 651 808 656 537 555 530 533 539 462 379 327 287 253 325 316 245 177 147 124 123 123 138 148 132 109 95 98
165 161 162 169 142 134 133 122 121 140 279 316 451 841 735 836 818 714 760 718 600 502 497 482 491 484 404 317 262 294 314 232 185 170 159 163 135 138 151 126 103 95 105
135 107 95 129 115 131 160 157 158 155 192 223 337 377 517 934 817 1054 637 515 606 638 658 587 562 502 517 375 278 284 333 351 263 223 178 156 135 139 164 126 100 94 100
126 109 87 116 166 134 91 151 185 186 202 236 253 308 372 535 684 542 756 468 476 770 648 587 561 506 519 408 301 302 311 354 288 256 198 158 138 157 165 137 114 100 101
162 165 199 240 245 221 157 91 74 144 138 180 209 264 396 533 536 746 666 610 566 589 616 735 549 480 581 486 401 276 342 378 372 281 233 186 139 194 177 155 131 116 111
152 150 182 248 273 244 195 125 106 68 94 128 141 220 320 383 561 614 742 581 705 662 655 752 763 503 591 530 511 422 408 304 373 292 199 163 144 179 174 161 132 105 98
142 160 160 215 225 236 215 153 114 86 135 155 159 155 265 389 341 457 827 565 728 613 691 857 848 547 630 618 471 408 336 375 334 251 210 198 143 170 136 169 126 113 114
144 160 182 220 218 196 175 176 151 127 132 161 129 118 175 312 485 608 465 598 762 811 788 775 768 732 529 550 537 501 429 470 299 233 232 136 156 150 176 165 126 109 105
165 190 225 206 162 162 149 161 195 186 154 138 105 127 129 271 441 505 617 587 692 911 984 1028 893 835 647 601 546 514 478 495 359 247 292 128 142 145 178 150 118 103 96
151 180 173 171 175 171 165 140 102 132 110 43 43 40 156 199 414 600 610 553 710 952 1022 1032 1037 783 739 636 544 431 445 400 400 257 134 129 107 175 159 148 118 101 91
162 166 148 169 184 202 165 181 173 146 135 170 130 129 133 161 267 546 528 645 824 1067 1142 979 1059 896 723 589 498 582 473 391 367 219 181 143 179 186 162 143 121 93 86
163 146 45 190 171 194 224 185 151 100 54 57 115 100 179 100 170 523 865 786 1010 1180 1100 1261 962 802 741 701 587 442 432 514 460 273 234 153 173 196 163 136 109 87 82
154 38 154 156 164 231 162 26 77 52 75 50 45 193 240 143 328 523 701 802 1180 1342 1169 1232 839 767 723 537 485 437 471 486 430 198 169 159 164 204 175 149 105 87 79
23 19 120 154 175 175 28 73 165 114 116 152 217 279 435 423 656 800 857 1015 966 1147 1310 950 756 523 456 467 562 533 421 392 374 227 173 172 190 191 160 111 83 75 67
-1 43 132 135 145 70 68 128 275 374 432 439 295 366 581 577 803 1026 876 849 940 697 580 491 372 407 438 496 542 457 360 346 233 100 191 229 200 190 151 105 67 62 61
23 110 120 123 74 45 80 129 211 270 284 234 223 408 483 532 618 817 673 660 670 542 361 269 248 330 325 479 403 342 253 284 297 161 158 205 201 200 157 119 100 62 56
33 98 120 104 64 40 79 131 179 204 250 291 392 371 460 591 640 590 619 616 506 393 364 320 256 230 226 247 276 273 295 229 256 207 119 216 241 207 145 106 101 96 89